Tracking 19920 objects as of 15-Oct-2019
HD Live streaming from Space Station
objects crossing your sky now

NOAA 16 DEB

Track NOAA 16 DEB now!
10-day predictions


NORAD ID: 41539
Int'l Code: 2000-055NP
Perigee: 815.1 km
Apogee: 853.1 km
Inclination: 98.8 °
Period: 101.4 minutes
Semi major axis: 7205 km
RCS: Unknown
Launch date: September 21, 2000
Source: United States (US)
Launch site: AIR FORCE WESTERN TEST RANGE (AFWTR)

Note: This is SATELLITE DEBRIS
aabbcc
Your satellite tracking list
Your tracking list is empty




NASA's NSSDC Master Catalog

Two Line Element Set (TLE):
1 41539U 00055NP  19287.46582359  .00000769  00000-0  38465-3 0  9992
2 41539  98.8217  10.6927 0026386   6.0279 354.1209 14.19534257190457
Source of the keplerian elements: AFSPC